Погода в Тимофеевке

Россия / Самарская область     53°33′47″N   49°23′45″E
темп.,
°C
ветер,
м/с
пор.,
м/с
влажн.,
%
обл.,
%
осадки,
мм/ч
давл.,
гПа
погр.,
м
20 июня, вс
вс2001:00+16з23870 0.0 102345
04:00+16зюз23880 0.0 102337
07:00+18з23800 0.0 1023128
10:00+21зсз34720 0.0 1023366
13:00+23зсз24651 0.0 1023768
16:00+25ссз34570 0.0 1022856
19:00+25ссз23645 0.0 1021355
22:00+21с11770 0.0 102211
21 июня, пн
пн2101:00+19ссз11810 0.0 102311
04:00+18в11830 0.0 102311
07:00+21ююз11761 0.0 102482
10:00+23юз22691 0.0 1023543
13:00+24юз226618 0.1 1023957
16:00+26зюз115559 0.1 10221170
19:00+26ююз11587 0.0 1022469
22:00+23ююв226317 0.0 102213
22 июня, вт
вт2201:00+21юз22720 0.0 102211
04:00+19юз11785 0.0 102311
07:00+21зсз12741 0.0 102399
10:00+24з116630 0.0 1023592
13:00+25зюз226167 0.0 10231094
16:00+27юз225324 0.0 10221145
19:00+26сз126251 0.0 1021469
22:00+23с00730 0.0 102111
23 июня, ср
ср2301:00+21ююв00780 0.0 102111
04:00+20с11810 0.0 102111
07:00+22ссз12740 0.0 1021122
10:00+24зсз34681 0.0 1021493
13:00+26сз34590 0.4 10211167
16:00+28ссз45465 0.4 10201212
19:00+27зсз34560 0.0 1019366
22:00+22ссз11710 0.0 102011
24 июня, чт
чт2401:00+20з11763 0.0 101911
04:00+19ссв1285100 0.0 102013
07:00+21с237860 0.0 1020163
10:00+24ссз34665 0.0 1020502
13:00+27ссз23606 0.0 1019953
16:00+27ссз345989 1.3 10191299
19:00+27св346175 0.0 1018503
22:00+22вюв22813 0.3 101928